Location: Broek
(53.2737°N, 5.9967°E)
Time: 20:56:44
(UTC+00:00)

MetOp-B - Pass Details

Date: 10 October 2024
Orbit: 819 x 821 km, 98.6° (Epoch: 10 November)

Event Time Altitude Azimuth Distance (km) Brightness Sun altitude
Exits shadow 19:59:51 69° 10° (N) 880 4.2 -28.3°
Drops below altitude 10° 20:04:37 10° 346° (NNW) 2,431 7.1 -28.9°
Sets 20:06:59 0° 346° (NNW) 3,367 7.9 -29.2°
